Location: Krasnoyarskiy Pitomnik
(51.1333°N, 71.6167°E)
Time: 06:01:45
(UTC+00:00)

Altair - Pass Details

Date: 21 April 2024
Orbit: 1501 x 1682 km, 47.2° (Epoch: 12 May)

Event Time Altitude Azimuth Distance (km) Brightness Sun altitude
Rises 19:25:35 0° 285° (WNW) 4,847 10.3 -26.6°
Reaches altitude 10° 19:28:57 10° 280° (W) 3,834 9.6 -26.5°
Maximum altitude 19:37:50 43° 213° (SSW) 2,095 7.7 -26.4°
Enters shadow 19:37:55 43° 212° (SSW) 2,095 7.7 -26.4°
Drops below altitude 10° 19:46:25 10° 147° (SSE) 3,695 - -26.2°
Sets 19:49:35 0° 140° (SE) 4,658 - -26.1°
